• Join FlightAware (Why Join?)
  • Login
  • US Flag 
07:21AM EST


 

Airport Tracker/Info


-or-


 

Live Flight TrackerFlight Track Log ✈ EGF3019 ✈ 14-Apr-2014 ✈ KXNA - KDFW

Flight Track Log - Related Links

Times and Time Zones

All times are in EDT time to prevent confusion due to time zone crossing. See the EGF3019 flight status page for this flight to view local times or setup timezone preferences in your user account.

Time Position Orientation Groundspeed Altitude Reporting Facility
EDT Latitude Longitude Course Direction KTS MPH feet Rate Location/Type
09:00PM 36.2989 -94.3939 243° Southwest 238 274 8,500  Level Memphis Center
09:01PM 36.0808 -94.4775 180° South  Level Estimated
09:01PM 36.2192 -94.4108 190° South 277 319 11,000  Level Memphis Center
09:02PM 36.0175 -94.4151 141° Southeast  Level FlightAware Approximate
09:02PM 36.1317 -94.4300 190° South 304 350 13,200  Level Memphis Center
09:03PM 35.9515 -94.4732 180° South  Level Estimated
09:03PM 36.0394 -94.4514 191° South 323 372 15,600  Level Memphis Center
09:04PM 35.8838 -94.4183 147° Southeast  Level FlightAware Approximate
09:04PM 35.9467 -94.4719 190° South 331 381 18,000  Level Memphis Center
09:05PM 35.8125 -94.4837 165° South  Level Estimated
09:05PM 35.8558 -94.4922 190° South 331 381 20,700  Level Memphis Center
09:06PM 35.7725 -94.5117 191° South 316 364 23,800 2,585 Climbing Memphis Center
09:08PM 35.6911 -94.5289 190° South 303 349 26,000 2,016 Climbing Memphis Center
09:09PM 35.6111 -94.5469 190° South 296 341 27,900 976 Climbing Memphis Center
09:10PM 35.5253 -94.5656 190° South 303 349 28,000 49 Climbing Memphis Center
09:11PM 35.4275 -94.5869 190° South 340 391 28,000  Level Memphis Center
09:12PM 35.3183 -94.6106 190° South 365 420 28,000  Level Memphis Center
09:13PM 35.2136 -94.6342 190° South 378 435 28,000  Level Memphis Center
09:14PM 35.0917 -94.6614 190° South 382 440 28,000  Level Memphis Center
09:15PM 34.9981 -94.6986 198° South 363 418 28,000  Level Memphis Center
09:16PM 34.9308 -94.7664 220° Southwest 321 369 28,000  Level Memphis Center
09:17PM 34.8497 -94.7961 197° South 326 375 28,000  Level Memphis Center
09:18PM 34.7547 -94.7778 171° South 337 388 28,000  Level Memphis Center
09:19PM 34.6603 -94.7642 173° South 338 389 28,000  Level Memphis Center
09:20PM 34.5694 -94.7647 180° South 334 384 28,000  Level Memphis Center
09:21PM 34.5053 -94.8403 224° Southwest 324 373 28,000 -439 Level Memphis Center
09:22PM 34.4461 -94.9300 231° Southwest 330 380 27,100 -927 Descending Memphis Center
09:23PM 34.3881 -95.0136 230° Southwest 330 380 26,100 -1,067 Descending Memphis Center
09:24PM 34.3125 -95.1244 230° Southwest 314 361 24,700 -926 Descending Fort Worth Center
09:25PM 34.2575 -95.2031 230° Southwest 309 356 24,000 -339 Descending Fort Worth Center
09:26PM 34.1989 -95.2886 230° Southwest 329 379 24,000  Level Fort Worth Center
09:27PM 34.1361 -95.3764 229° Southwest 342 394 24,000  Level Fort Worth Center
09:28PM 34.0761 -95.4614 230° Southwest 338 389 24,000  Level Fort Worth Center
09:29PM 34.0150 -95.5469 229° Southwest 337 388 24,000  Level Fort Worth Center
09:30PM 33.9478 -95.6414 229° Southwest 344 396 24,000  Level Fort Worth Center
09:31PM 33.8867 -95.7272 229° Southwest 341 392 24,000  Level Fort Worth Center
09:32PM 33.8108 -95.8314 229° Southwest 342 394 24,000  Level Fort Worth Center
09:33PM 33.7489 -95.9169 229° Southwest 342 394 24,000  Level Fort Worth Center
09:34PM 33.6856 -96.0039 229° Southwest 345 397 24,000  Level Fort Worth Center
09:35PM 33.6242 -96.0897 229° Southwest 343 395 24,000 -683 Level Fort Worth Center
09:36PM 33.5569 -96.1811 229° Southwest 343 395 22,600 -1,902 Descending Fort Worth Center
09:37PM 33.4950 -96.2656 229° Southwest 313 360 20,100 -2,274 Descending Fort Worth Center
09:38PM 33.4394 -96.3444 230° Southwest 311 358 17,900 -2,244 Descending Fort Worth Center
09:39PM 33.3839 -96.4183 228° Southwest 300 345 15,500 -2,537 Descending Fort Worth Center
09:41PM 33.3147 -96.4989 224° Southwest 321 369 12,700 -2,098 Descending Fort Worth Center
09:42PM 33.2519 -96.5722 224° Southwest 319 367 11,200 -829 Descending Fort Worth Center
09:43PM 33.1936 -96.6414 225° Southwest 297 342 11,000 -98 Descending Fort Worth Center
09:44PM 33.1350 -96.7117 225° Southwest 282 325 11,000  Level Fort Worth Center
09:45PM 33.0800 -96.7769 225° Southwest 282 325 11,000  Level Fort Worth Center
09:46PM 33.0244 -96.8428 225° Southwest 282 325 11,000  Level Fort Worth Center
09:47PM 32.9719 -96.9025 224° Southwest 246 283 11,000 -732 Level Fort Worth Center
09:48PM 32.8939 -96.9072 183° South 258 297 9,500 -1,756 Descending Fort Worth Center
09:49PM 32.8200 -96.9061 179° South 262 302 7,400 -1,951 Descending Fort Worth Center
09:50PM 32.7464 -96.9103 183° South 265 305 5,500 -1,854 Descending Fort Worth Center
09:51PM 32.7339 -96.9744 257° West 208 239 3,600 -1,463 Descending Fort Worth Center
09:52PM 32.7753 -97.0100 324° Northwest 167 192 2,500 -878 Descending Fort Worth Center
09:53PM 32.8139 -97.0114 358° North 139 160 1,800 -585 Descending Fort Worth Center
09:54PM 32.8408 -97.0103 North 111 128 1,300 -585 Descending Fort Worth Center
09:55PM 32.8736 -97.0108 359° North 114 131 600 -689 Descending Fort Worth Center